OBJECT C, 62727

Orbit data source: Space-Track

You're viewing an Uncataloged Satellite

Recently launched and/or uncataloged satellites may have evolving metadata. Metadata may include but not limited to: Owner, Maufacturer, Bus, Motor, and Mission.

OBJECT C, 62727 is a Chinese satellite in SSO that was launched on Fri, 17 Jan 2025 UTC via a CHANG ZHENG 2D launch vehicle from the Jiuquan Satellite Launch Center, China (JSC). Unknown objects in Earth's orbit typically refer to objects detected orbiting the Earth but have not yet been identified or cataloged. These objects could be anything from previously untracked satellites, spent rocket stages, debris from satellite collisions, or even natural meteoroids temporarily captured by Earth's gravity.

Loading next visibility...
OBJECT C details
Identifier
62727, 2025-012C
Orbit
SSO
Last TLE update8 hours ago
Origin
Flag of CNHANGZ (CN / PRC)
ManufacturerShikong Daoyu
MissionOperational spacecraft
Bus & MotorLANTAN, Unknown motor
Mass66 kg wet, 66 kg dry
Launch date (UTC)
2025-01-17 (1 month ago)
Launch vehicle
CHANG ZHENG 2D
Launch site
Jiuquan Satellite Launch Center, China (JSC)
Object typeUnknown
Shape & HBRUnknown
Radar Cross SectionMedium (>0.1 m² and <1 m²)

Expand to show TLE details & history

TLE from 8 hours ago
0 OBJECT C
1 62727U 25012C   25047.14063502  .00016767  00000-0  89460-3 0  9990
2 62727  97.4752 122.5962 0009795 163.1784 196.9775 15.15180160  4508
Epoch: 2025-02-16T03:22Z
Definitive object data (Epoch: 2025-02-16T03:22:30.865Z)
Latitude-0.00004°
Longitude-74.41036°
Altitude529.978 km
Speed7.594 km/s
True Right ascension08h 10m 23s
True Declination0° 00' 00"
Sunlit
Object was in full shadow at TLE epoch
Visualization TLE readout
Latitude69.98°
Longitude-95.05845°
Altitude532.584 km
Speed7.603 km/s
Apparent Right ascension03h 44m 30s
Apparent Declination21° 00' 52"
Sunlit
Object is in full shadow
Visualization observer readout
Local Sidereal Time14:23:13
Azimuth338.82° N
Elevation-26.187°
Doppler factor1
Orbital elements
Apogee altitude524.161 km
Perigee altitude510.653 km
Semi-major axis6,895.544 km
Eccentricity0.0009795
Inclination97.4752°
RAAN122.5962°
Arg. of periapsis163.1784°
True anomaly196.94476°
Mean anomaly196.9775°
Eccentric anomaly196.96113°
Mean motion3.79045 °/min
BSTAR0.0008946
Orbital period94.98 mins
Loading maneuver chart data...
Loading historical data...
Loading historical data...
Loading historical data...
Loading historical data...
Loading historical data...
Loading historical data...
Loading historical data...
Other satellites on launch #12 in the year 2025 (2025-01-17 UTC)

OBJECT C Visibility forecast

Observer location: undefined°, undefined

Span
Click to sort rows by Start time (UTC) header in descending order
Start Az.
Max El. time (UTC)
Max El. Az.
Max El.
End time (UTC)
End Az.
5 mins2025-02-16 18:12:49.547Z346.962° N2025-02-16 18:14:49.547Z292.473° WNW33.569°2025-02-16 18:17:49.547Z219.266° SW
5 mins2025-02-17 04:52:49.547Z158.467° S2025-02-17 04:54:49.547Z65.536° ENE44.199°2025-02-17 04:57:49.547Z352.015° N
|